Regional Weather Roundup
Issued by NWS

Home | Current Version | Previous Version | Text Only | Print | Product List | Glossary On
Versions: 1 2 3 4 5 6 7 8 9 10 11 12 13 14 15 16 17 18 19 20 21 22 23 24 25 26 27
000
ASUS45 KPSR 221010
RWRAZ

ARIZONA HOURLY REGIONAL WEATHER ROUNDUP
NATIONAL WEATHER SERVICE PHOENIX AZ
300 AM MST SAT JUL 22 2017

NOTE: FAIR INDICATES FEW OR NO CLOUDS BELOW 12,000 FEET WITH NO
SIGNIFICANT WEATHER AND/OR OBSTRUCTIONS TO VISIBILITY.

AZZ001>003-036-221100-
NORTHWEST ARIZONA

CITY           SKY/WX    TMP DP  RH WIND       PRES   REMARKS
BULLHEAD CITY  PTCLDY    97  57  26 CALM      29.78R
KINGMAN        MOCLDY    78  58  49 S6        30.02R
$$

AZZ004>008-015-016-018-221100-
NORTH CENTRAL ARIZONA

CITY           SKY/WX    TMP DP  RH WIND       PRES   REMARKS
GRAND CANYON   MOCLDY    61  57  87 CALM      30.27F
WILLIAMS       PTCLDY    59  57  94 CALM      30.28R
PRESCOTT       CLOUDY    69  62  78 E3        30.16R
FLAGSTAFF      CLOUDY    58  56  93 NE8       30.30R
PAYSON         CLOUDY    68  64  88 CALM      30.17S
PAGE           MOCLDY    77  56  48 S3        30.09F
$$

AZZ009>014-017-221100-
NORTHEAST ARIZONA

CITY           SKY/WX    TMP DP  RH WIND       PRES   REMARKS
WINSLOW        LGT RAIN  69  63  81 NW12G22   30.14S
SAINT JOHNS    CLOUDY    67  63  87 CALM      30.16F
WINDOW ROCK    CLOUDY    66  56  70 CALM      30.25F
SHOW LOW       MOCLDY    61  55  82 S5        30.23S
$$

AZZ540-542>544-546-548-221100-
GREATER PHOENIX AREA

CITY           SKY/WX    TMP DP  RH WIND       PRES   REMARKS
PHOENIX        PTCLDY    88  68  51 E8        29.84S
BUCKEYE        CLEAR     86  57  37 NE5       29.85R
LUKE AFB       CLEAR     89  67  48 NE5       29.84S
DEER VALLEY    PTCLDY    83  70  64 E6        29.87S
SCOTTSDALE     PTCLDY    84  70  62 CALM      29.89S
MESA-GATEWAY   MOCLDY    82  70  65 E6        29.88F
$$

AZZ539-553-221100-
SOUTHWEST MARICOPA COUNTY AND PINAL COUNTY

CITY           SKY/WX    TMP DP  RH WIND       PRES   REMARKS
CASA GRANDE    PTCLDY    84  69  60 S6        29.89R
GILA BEND      FAIR      88  62  41 CALM      29.82S
$$

AZZ503-504-507>509-221100-
SOUTHEAST ARIZONA

CITY           SKY/WX    TMP DP  RH WIND       PRES   REMARKS
TUCSON         PTCLDY    78  70  76 S6        29.99S
DAVIS-MONTHAN  PTCLDY    76  70  80 SE7       29.98S
NOGALES        MOCLDY    70  68  93 SE3       30.08S
SIERRA VISTA   MOCLDY    68  65  90 CALM      30.13S
DOUGLAS        MOCLDY    69  66  90 SE7       30.09S
SAFFORD        PTCLDY    73  70  90 N3        29.99S
$$

AZZ532-221100-
SOUTHWEST ARIZONA

CITY           SKY/WX    TMP DP  RH WIND       PRES   REMARKS
YUMA           CLEAR     87  65  47 SE8       29.77S
$$

CAZ041-043-047-048-061-525>527-560>570-221100-
SOUTHERN CALIFORNIA

CITY           SKY/WX    TMP DP  RH WIND       PRES   REMARKS
DOWNTOWN L.A.  CLEAR     68  62  81 CALM      29.90S
L.A. AIRPORT   MOCLDY    67  63  87 CALM      29.91S
SAN DIEGO      CLOUDY    70  63  78 CALM      29.92S
BURBANK        CLEAR     68  59  73 E5        29.91S
ONTARIO        CLEAR     68  62  81 SW6       29.91F
RIVERSIDE      CLEAR     69  63  81 CALM      29.92S
PALM SPRINGS   CLEAR     85  56  37 CALM      29.81F
EL CENTRO NAS  CLEAR     81  66  60 E9        29.76S
IMPERIAL       CLEAR     85  70  60 SE10      29.74S
BLYTHE         CLEAR     90  55  30 S8        29.78S
NEEDLES        CLEAR     99  53  21 SW8       29.79R
$$

NVZ020-UTZ003-221100-
SOUTHERN NEVADA-UTAH

CITY           SKY/WX    TMP DP  RH WIND       PRES   REMARKS
LAS VEGAS      PTCLDY    89  48  24 SW6       29.87R
SALT LAKE CITY CLEAR     79  51  37 SE9       30.06R
$$

NMZ009-TXZ055-221100-
NEW MEXICO-WEST TEXAS

CITY           SKY/WX    TMP DP  RH WIND       PRES   REMARKS
ALBUQUERQUE    PTCLDY    69  57  65 SE7       30.15F
EL PASO        MOCLDY    73  65  75 SE8       30.07R
$$


........................KEY........................
SKY/WX - SKY CONDITION/WEATHER
TMP    - TEMPERATURE IN FAHRENHEIT
DP     - DEW POINT IN FAHRENHEIT
RH     - RELATIVE HUMIDITY IN PERCENT
WIND   - DIRECTION AND SPEED IN MILES PER HOUR (MPH)
VRB    - VARIABLE WIND DIRECTION
PRES   - MEAN SEA LEVEL PRESSURE IN INCHES OF MERCURY
         F - FALLING PRESSURE   R - RISING PRESSURE
         S - STEADY PRESSURE
VSB    - VISIBILITY IN MILES
HX     - HEAT INDEX IN FAHRENHEIT
WCI    - WIND CHILL INDEX IN FAHRENHEIT
TC     - TEMPERATURE IN CELSIUS WHICH IS ALSO KNOWN AS
         TEMPERATURE IN CENTIGRADE
AFB    - AIR FORCE BASE
         LUKE AFB IS LUKE AIR FORCE BASE
         DAVIS-MONTHAN IS DAVIS-MONTHAN AIR FORCE BASE
NAS    - NAVAL AIR STATION
         EL CENTRO NAS IS EL CENTRO NAVAL AIR STATION
N/A    - NOT AVAILABLE





USA.gov is the U.S. government's official web portal to all federal, state and local government web resources and services.